{"data":{"norad_id":57820,"intl_designator":"2023-138N","name":"STARLINK-30409","alt_names":[],"object_type":"PAYLOAD","status":"ACTIVE","operator":null,"country":"US","launch_date":"2023-09-09","launch_site_code":"AFETR","launch_vehicle":null,"mission":null,"orbit_class":"UNKNOWN","rcs_meters":null,"size_class":null,"mass_kg":null,"dimensions":null,"purposes":["comms"],"wikipedia_slug":null,"has_3d_model":false,"image_url":null,"decayed_at":null,"tle_current":{"epoch":"2026-09-20T13:30:16.044480Z","epoch_age_seconds":129233,"freshness":"FRESH","line1":"1 57820U 23138N   26263.56268570  .00000021  00000+0  10276-4 0  9999","line2":"2 57820  43.0002 213.4488 0001187 250.6195 109.4529 15.27579640168481","mean_motion":15.2757964,"eccentricity":0.0001187,"inclination_deg":43.0002,"raan_deg":213.4488,"arg_perigee_deg":250.6195,"mean_anomaly_deg":109.4529,"bstar":1.0276e-5,"rev_number":16848,"period_min":94.266770929207,"perigee_km":482.23575109182,"apogee_km":483.86459692693,"semimajor_km":6861.1871740094,"source":"CELESTRAK","updated_at":"2026-09-21T09:00:33.709067Z"}}}